Location: Izdebno
(52.6670°N, 16.2170°E)
Time: 14:07:02
(UTC+02:00)

A-11 Canister half - Pass Details

Date: 28 February 2024
Orbit: 1525 x 1683 km, 47.3° (Epoch: 24 April)

Event Time Altitude Azimuth Distance (km) Brightness Sun altitude
Rises 18:14:29 0° 190° (S) 4,797 11.8 -7.3°
Reaches altitude 10° 18:18:41 10° 174° (S) 3,786 11.0 -8.0°
Maximum altitude 18:25:00 20° 132° (SE) 3,027 10.2 -8.9°
Enters shadow 18:30:40 11° 93° (E) 3,614 10.3 -9.8°
